TimeMST,TemperatureF,Dew PointF,Humidity,Sea Level PressureIn,VisibilityMPH,Wind Direction,Wind SpeedMPH,Gust SpeedMPH,PrecipitationIn,Events,Conditions,WindDirDegrees,DateUTC
5:00 AM,12,7,71,30.25,15,NW,5.8,,,,,310,2011-12-09 12:00:00
6:00 AM,12.2,6.8,79,30.24,15.0,NW,5.8,-,N/A,,Clear,310,2011-12-09 13:00:00
7:00 AM,12.2,6.8,79,30.24,15.0,NNW,6.9,-,N/A,,Partly Cloudy,340,2011-12-09 14:00:00
8:00 AM,14.0,8.6,79,30.23,25.0,NW,8.1,-,N/A,,Partly Cloudy,310,2011-12-09 15:00:00
9:00 AM,21.2,14.0,74,30.23,30.0,NW,5.8,-,N/A,,Partly Cloudy,310,2011-12-09 16:00:00
10:00 AM,23.0,15.8,74,30.23,30.0,NW,4.6,-,N/A,,Mostly Cloudy,320,2011-12-09 17:00:00
11:00 AM,25,16,56,30.21,28,WSW,4.6,,,,Mostly Cloudy,250,2011-12-09 18:00:00
11:00 AM,24.8,15.8,69,30.21,30.0,West,3.5,-,N/A,,Mostly Cloudy,260,2011-12-09 18:00:00
12:00 PM,30.2,19.4,64,30.19,30.0,NW,3.5,-,N/A,,Mostly Cloudy,320,2011-12-09 19:00:00
1:00 PM,33.8,23.0,65,30.17,30.0,NNW,3.5,-,N/A,,Partly Cloudy,330,2011-12-09 20:00:00
2:00 PM,35.6,21.2,56,30.15,30.0,North,10.4,-,N/A,,Mostly Cloudy,360,2011-12-09 21:00:00
3:00 PM,41.0,21.2,45,30.14,30.0,NW,13.8,-,N/A,,Mostly Cloudy,320,2011-12-09 22:00:00
4:00 PM,41.0,23.0,49,30.15,30.0,WNW,13.8,-,N/A,,Mostly Cloudy,290,2011-12-09 23:00:00
5:00 PM,35,18,37,30.16,15,NW,8.1,,,,Scattered Clouds,320,2011-12-10 00:00:00
5:00 PM,35.6,17.6,48,30.16,15.0,NW,8.1,-,N/A,,Scattered Clouds,320,2011-12-10 00:00:00
6:00 PM,42.8,19.4,39,30.16,15.0,West,21.9,-,N/A,,Mostly Cloudy,270,2011-12-10 01:00:00
7:00 PM,35.6,17.6,48,30.17,15.0,NNW,8.1,-,N/A,,Mostly Cloudy,340,2011-12-10 02:00:00
8:00 PM,35.6,17.6,48,30.14,15.0,West,15.0,-,N/A,,Mostly Cloudy,280,2011-12-10 03:00:00
9:00 PM,39.2,19.4,45,30.13,15.0,WNW,10.4,-,N/A,,Mostly Cloudy,290,2011-12-10 04:00:00
10:00 PM,33.8,15.8,48,30.12,15.0,WSW,6.9,-,N/A,,Mostly Cloudy,250,2011-12-10 05:00:00